TimeCST,TemperatureF,Dew PointF,Humidity,Sea Level PressureIn,VisibilityMPH,Wind Direction,Wind SpeedMPH,Gust SpeedMPH,PrecipitationIn,Events,Conditions,WindDirDegrees,DateUTC
12:52 AM,17.1,9.0,71,30.24,10.0,NNW,10.4,-,N/A,,Clear,330,2013-02-19 06:52:00
1:52 AM,15.1,9.0,77,30.26,10.0,NNW,9.2,-,N/A,,Clear,330,2013-02-19 07:52:00
2:26 AM,15.8,10.4,79,30.16,10.0,NNW,11.5,-,N/A,,Mostly Cloudy,340,2013-02-19 08:26:00
2:52 AM,16.0,10.9,81,30.27,6.0,North,8.1,-,0.00,Snow,Light Snow,350,2013-02-19 08:52:00
3:52 AM,14.0,9.0,80,30.28,7.0,North,10.4,-,0.00,,Overcast,350,2013-02-19 09:52:00
4:52 AM,12.9,7.0,77,30.30,10.0,NNW,13.8,-,N/A,,Overcast,330,2013-02-19 10:52:00
5:52 AM,12.9,8.1,81,30.32,3.0,North,8.1,-,0.00,Snow,Light Snow,350,2013-02-19 11:52:00
7:52 AM,9.0,5.0,84,30.37,4.0,NW,4.6,-,0.00,Snow,Light Snow,320,2013-02-19 13:52:00
8:52 AM,10.0,5.0,80,30.39,3.0,North,8.1,-,0.00,Snow,Light Snow,360,2013-02-19 14:52:00
9:45 AM,10.4,3.2,73,30.27,9.0,NNW,4.6,-,0.00,,Overcast,330,2013-02-19 15:45:00
9:52 AM,12.0,5.0,73,30.40,8.0,North,3.5,-,0.00,,Overcast,10,2013-02-19 15:52:00
10:30 AM,14.0,5.0,67,30.26,10.0,NNW,4.6,-,N/A,,Mostly Cloudy,340,2013-02-19 16:30:00
10:43 AM,14.0,3.2,62,30.26,10.0,North,6.9,-,N/A,,Scattered Clouds,10,2013-02-19 16:43:00
10:52 AM,14.0,5.0,67,30.40,10.0,Calm,Calm,-,N/A,,Partly Cloudy,0,2013-02-19 16:52:00
12:52 PM,19.0,3.0,50,30.38,10.0,Variable,4.6,-,N/A,,Clear,0,2013-02-19 18:52:00
1:52 PM,21.9,3.9,46,30.33,10.0,ENE,8.1,-,N/A,,Clear,70,2013-02-19 19:52:00
2:52 PM,23.0,3.0,42,30.32,10.0,East,9.2,-,N/A,,Clear,90,2013-02-19 20:52:00
3:52 PM,23.0,1.0,39,30.31,10.0,East,11.5,-,N/A,,Clear,100,2013-02-19 21:52:00
4:52 PM,21.9,1.0,40,30.30,10.0,East,16.1,-,N/A,,Clear,80,2013-02-19 22:52:00
6:52 PM,17.1,1.9,52,30.31,10.0,East,10.4,-,N/A,,Clear,80,2013-02-20 00:52:00
7:52 PM,15.1,3.0,59,30.34,10.0,East,9.2,-,N/A,,Clear,90,2013-02-20 01:52:00
8:52 PM,12.9,3.0,65,30.35,10.0,East,9.2,-,N/A,,Clear,90,2013-02-20 02:52:00
9:52 PM,12.9,1.9,62,30.33,10.0,East,11.5,-,N/A,,Clear,90,2013-02-20 03:52:00
10:52 PM,10.9,1.0,64,30.35,10.0,ESE,15.0,-,N/A,,Clear,120,2013-02-20 04:52:00
11:52 PM,10.0,-0.0,64,30.34,10.0,ESE,13.8,-,N/A,,Clear,110,2013-02-20 05:52:00